Wind_Speed
8 8 7 6 6 6 5 5 5 3 2 1 1 1 1 1 2 3 3 4 5 5 5 5 5 6 6 7 7 7 7 7 8 8 8 8 9 9 10 9 9 9 9
7 7 6 6 5 5 4 4 3 2 1 1 1 1 1 2 2 3 3 4 4 5 5 6 6 7 7 8 8 8 8 8 8 9 9 9 10 10 10 10 10 10 10
6 6 6 5 5 4 3 3 3 2 2 1 1 1 1 2 2 3 4 4 5 6 5 6 6 7 7 8 8 8 8 8 9 9 9 9 9 10 10 10 11 11 11
6 5 4 4 4 4 3 3 2 2 1 1 1 1 1 2 3 4 4 4 5 6 6 6 7 7 8 8 8 9 9 9 9 10 10 10 10 10 11 11 12 12 12
5 5 4 3 3 2 2 2 2 2 2 1 1 2 2 3 4 4 5 5 6 7 8 7 7 8 8 9 10 10 10 10 10 11 11 11 11 11 11 12 12 13 12
4 4 3 2 2 1 1 1 1 1 1 2 2 3 3 4 5 5 6 6 7 8 8 8 8 9 9 10 11 11 11 11 11 12 12 12 12 12 12 13 13 13 13
3 3 2 2 1 1 1 1 1 2 2 3 4 4 5 5 6 7 7 8 8 9 9 9 10 10 11 11 12 12 12 12 12 12 12 12 12 12 12 13 13 13 14
2 2 1 2 1 0 1 2 2 2 3 3 4 5 6 6 7 8 8 8 9 9 10 11 12 11 12 12 13 13 13 13 13 13 12 12 13 13 13 13 14 14 14
1 1 1 1 1 2 2 2 3 4 4 4 5 5 6 6 7 8 8 8 9 10 10 11 11 12 13 14 14 14 14 14 14 14 14 13 13 14 15 15 14 15 15
2 2 2 2 3 3 3 3 3 4 4 5 6 6 7 7 8 8 9 9 10 11 11 13 13 14 14 14 15 15 15 15 15 15 15 14 14 15 15 15 15 15 15
3 4 4 4 4 5 5 5 5 6 5 6 7 7 8 8 8 9 10 10 11 12 13 14 15 15 15 15 15 15 15 15 15 15 15 15 15 15 15 15 16 15 15
5 6 6 6 6 6 6 7 7 7 7 7 8 8 8 9 9 10 10 11 12 13 14 15 15 16 16 16 16 16 16 16 15 16 17 17 16 16 16 16 15 16 16
7 7 7 7 7 8 8 8 8 9 8 8 8 8 9 10 11 12 12 13 14 15 15 15 16 17 17 17 18 17 17 17 16 16 17 17 17 17 17 17 17 17 17
8 8 8 8 8 9 10 10 10 10 9 10 10 10 10 11 12 13 14 15 16 17 17 17 17 17 17 18 19 19 18 18 18 18 18 18 18 18 18 18 19 19 19
9 9 9 9 9 9 10 10 10 10 10 11 11 11 12 13 13 15 15 16 17 18 19 19 18 18 18 18 19 20 21 20 19 19 19 19 19 19 20 20 19 20 20
11 11 10 11 10 11 11 12 11 12 12 13 13 13 14 15 15 16 17 18 19 19 19 20 19 19 20 20 21 21 21 21 20 20 20 20 21 21 21 21 20 21 21
12 12 12 12 12 13 13 13 14 14 15 15 15 16 16 17 17 17 18 19 20 21 20 20 21 21 22 23 22 23 23 22 21 21 21 22 22 22 22 22 22 22 22
13 14 14 14 14 15 15 16 16 16 16 16 17 18 18 19 19 19 20 21 22 22 23 22 22 23 23 24 24 24 23 23 23 23 23 23 23 24 24 24 25 24 24
14 15 15 15 16 17 17 18 19 18 18 19 19 20 20 21 22 22 23 23 24 25 25 24 24 24 24 24 25 25 24 24 24 24 24 25 24 25 25 25 25 25 26
17 18 18 18 18 19 20 20 20 19 20 21 22 22 23 24 25 25 25 26 27 27 27 26 26 25 25 26 26 26 26 26 25 25 26 26 26 26 26 26 26 26 26
19 20 20 21 21 22 22 23 23 22 22 23 24 24 25 26 27 27 28 28 28 28 28 27 27 26 27 27 27 28 28 27 27 27 27 27 27 27 27 27 27 27 27
22 22 23 23 24 24 24 25 25 24 24 25 26 26 27 27 28 28 29 29 29 29 29 28 28 27 28 28 29 29 29 28 28 28 29 29 29 28 28 28 28 28 28
24 25 25 26 26 26 26 27 27 26 26 27 27 28 29 29 29 29 30 30 29 29 30 30 29 29 29 29 30 30 30 30 29 29 29 29 30 29 29 29 29 29 29
27 27 27 28 28 28 29 28 28 29 30 30 30 31 31 31 31 31 31 31 31 30 30 30 31 31 31 31 31 31 31 32 31 30 30 30 30 30 30 30 30 30 30
29 29 29 29 30 30 31 30 31 32 32 32 32 33 34 34 33 33 32 32 32 32 32 32 33 33 33 32 32 33 33 33 32 32 31 31 31 31 31 31 31 31 31
31 31 32 32 32 32 32 32 32 33 33 33 34 34 35 34 34 33 33 33 33 33 33 33 34 34 33 33 33 33 34 34 33 32 32 32 32 32 32 32 32 31 31
Wind_Direction
121 124 123 121 127 132 134 132 138 139 136 143 157 133 346 343 337 337 329 332 335 328 332 323 314 309 301 297 298 296 293 292 291 291 291 290 287 285 285 278 275 275 277
126 127 120 116 115 125 127 131 133 145 172 198 200 219 307 330 338 337 336 341 339 332 332 327 318 313 306 307 306 299 291 286 290 290 289 290 290 286 283 278 275 275 275
128 125 122 119 118 126 145 150 153 174 174 182 190 229 293 311 329 325 326 340 335 332 331 325 319 317 314 313 308 305 297 290 287 288 289 290 290 289 284 279 279 279 280
131 130 130 128 122 128 145 150 147 165 188 224 243 268 296 316 328 323 326 333 330 331 331 325 320 319 316 316 312 308 301 293 289 288 288 289 288 288 286 282 280 279 279
130 126 132 133 136 133 143 164 170 183 206 235 262 276 299 308 318 324 327 327 323 323 324 320 319 320 318 316 312 308 302 295 292 291 288 286 287 285 285 285 284 280 280
139 136 130 126 131 139 159 197 246 260 259 277 281 291 303 311 314 316 315 316 315 316 317 314 312 315 315 313 312 307 305 298 295 296 291 287 287 285 285 283 280 279 277
139 133 128 142 131 136 194 267 299 286 283 287 288 292 303 313 313 313 313 311 314 319 317 316 314 314 314 314 312 308 305 301 299 299 294 288 287 287 285 283 281 276 272
144 151 152 153 160 232 263 266 284 278 281 292 295 296 301 307 305 307 310 311 317 321 319 315 312 313 315 316 312 306 303 302 300 302 296 292 287 286 285 283 280 274 270
197 208 221 209 225 254 261 264 261 279 282 281 280 286 292 298 307 305 307 314 317 318 319 320 319 318 317 316 315 310 302 298 297 298 296 294 287 285 286 284 281 276 271
259 279 286 282 275 273 275 278 274 280 288 281 281 284 287 295 304 306 308 312 320 321 320 321 320 319 319 317 316 314 308 305 300 297 296 294 290 287 287 287 284 279 275
276 287 288 287 284 279 276 277 286 288 295 294 291 291 293 298 305 309 310 312 314 316 317 319 318 317 316 314 313 314 310 307 304 301 296 294 293 292 291 290 287 284 279
283 287 289 284 283 282 276 279 281 285 291 293 292 293 297 301 301 303 307 309 310 312 313 314 313 313 313 314 313 312 309 307 304 303 300 296 294 291 292 291 289 286 284
285 288 288 282 283 286 284 284 284 287 287 290 292 295 297 300 300 299 301 305 306 308 309 311 312 312 311 312 312 311 309 306 303 304 302 299 295 292 290 289 287 285 284
286 284 286 284 283 285 286 283 282 286 286 288 289 294 298 300 299 301 303 305 306 308 309 311 311 312 312 311 309 310 308 305 302 301 299 297 295 293 292 288 286 285 284
286 288 287 285 283 285 289 291 283 285 287 286 286 289 293 298 300 301 303 305 307 309 311 314 313 314 316 311 311 309 306 304 301 300 298 296 294 291 290 288 288 287 285
279 281 283 283 284 286 289 289 288 285 285 285 285 285 290 294 297 298 299 301 303 306 308 309 311 314 313 311 309 309 308 302 299 298 296 295 292 290 289 288 287 288 285
279 280 284 285 288 287 290 291 293 291 289 286 285 286 289 292 295 296 296 298 300 302 303 303 305 308 309 310 307 306 305 303 299 297 294 293 293 292 292 289 288 287 286
284 285 287 289 290 291 292 293 294 291 288 286 286 288 290 292 292 293 295 296 297 298 298 299 302 304 305 306 307 308 305 302 298 296 294 293 294 294 292 289 287 287 286
286 287 287 290 291 293 293 293 294 290 287 285 285 288 289 292 292 292 293 295 296 297 297 295 298 300 302 303 304 305 305 303 300 297 295 293 293 293 292 290 288 286 286
283 285 286 288 291 292 292 292 293 291 289 288 288 288 288 289 291 292 293 293 293 292 293 293 295 296 298 301 302 303 303 301 300 299 296 293 292 292 292 289 288 287 286
282 283 285 286 288 290 290 290 291 289 289 289 289 290 290 291 293 293 292 294 293 292 292 295 294 295 296 299 300 301 300 300 299 297 296 294 292 291 290 290 288 287 286
281 282 283 284 286 287 287 288 287 287 289 290 288 289 290 292 291 291 293 294 293 291 292 294 294 294 295 296 297 299 299 299 299 297 295 293 291 289 290 289 288 287 287
281 283 283 284 284 287 287 286 285 286 287 288 288 289 289 291 292 292 292 292 293 293 292 293 293 293 294 295 296 297 297 298 297 296 295 293 289 288 289 289 287 286 286
281 282 282 284 284 285 287 286 285 286 288 288 289 289 290 291 292 291 290 290 291 293 293 292 292 293 293 294 294 294 294 295 295 295 293 293 291 288 287 287 287 286 286
281 281 282 284 285 285 286 285 285 286 287 289 290 291 291 291 291 290 290 290 291 291 291 290 291 291 291 292 292 291 292 293 293 293 292 291 290 288 287 286 287 286 284
282 282 283 284 284 286 286 287 288 288 288 289 290 291 291 291 291 290 289 289 289 290 289 290 292 293 292 291 290 291 291 291 291 291 290 289 289 287 286 286 286 285 285
Height
5896 5896 5897 5897 5897 5897 5898 5898 5898 5899 5899 5899 5899 5899 5899 5899 5899 5898 5898 5897 5896 5896 5895 5894 5893 5893 5892 5891 5890 5889 5889 5888 5888 5887 5886 5886 5885 5884 5883 5883 5883 5883 5882
5897 5898 5898 5898 5898 5898 5899 5899 5899 5899 5899 5899 5899 5899 5899 5899 5898 5898 5897 5897 5896 5895 5894 5894 5893 5892 5891 5890 5889 5888 5887 5886 5886 5885 5885 5884 5883 5882 5882 5881 5881 5881 5880
5899 5899 5899 5899 5899 5899 5899 5899 5899 5899 5900 5899 5899 5899 5899 5899 5898 5898 5897 5896 5896 5895 5894 5893 5892 5891 5890 5889 5888 5887 5886 5884 5884 5883 5883 5882 5881 5880 5879 5879 5879 5878 5878
5899 5900 5900 5900 5900 5900 5900 5900 5900 5900 5900 5900 5900 5900 5899 5899 5898 5898 5897 5896 5895 5895 5893 5892 5891 5890 5889 5888 5887 5885 5884 5883 5882 5881 5880 5880 5879 5878 5877 5877 5876 5876 5875
5900 5900 5900 5901 5901 5901 5901 5900 5901 5900 5900 5900 5900 5900 5899 5899 5898 5897 5896 5896 5895 5893 5892 5891 5890 5889 5887 5886 5885 5883 5882 5881 5880 5879 5878 5877 5877 5876 5875 5874 5873 5873 5872
5901 5901 5901 5901 5901 5901 5901 5901 5901 5900 5900 5900 5900 5899 5899 5898 5897 5896 5896 5895 5893 5892 5891 5890 5889 5887 5886 5885 5883 5882 5880 5879 5878 5876 5875 5875 5874 5873 5872 5871 5870 5869 5869
5901 5901 5901 5901 5901 5901 5901 5901 5900 5900 5900 5899 5899 5899 5898 5897 5897 5896 5895 5894 5892 5891 5890 5888 5887 5886 5884 5883 5881 5879 5878 5876 5875 5874 5872 5872 5871 5870 5869 5868 5867 5866 5866
5902 5902 5902 5901 5901 5900 5900 5900 5900 5899 5899 5899 5898 5898 5897 5897 5896 5894 5893 5892 5891 5890 5889 5887 5885 5884 5882 5881 5879 5877 5875 5874 5872 5871 5870 5869 5868 5867 5866 5865 5864 5863 5863
5902 5902 5901 5901 5901 5900 5900 5899 5899 5899 5898 5898 5898 5897 5897 5896 5895 5894 5892 5891 5890 5888 5887 5885 5883 5881 5880 5878 5876 5875 5873 5871 5870 5868 5867 5865 5864 5863 5862 5861 5860 5859 5859
5902 5902 5901 5901 5900 5900 5899 5899 5898 5898 5897 5897 5896 5896 5895 5894 5894 5892 5891 5889 5888 5886 5885 5883 5881 5879 5877 5876 5874 5872 5870 5868 5866 5865 5863 5862 5861 5860 5859 5857 5856 5855 5855
5902 5901 5901 5900 5899 5899 5898 5898 5897 5896 5896 5895 5895 5894 5894 5893 5892 5891 5889 5888 5886 5884 5883 5881 5879 5877 5875 5873 5871 5869 5867 5865 5863 5861 5860 5858 5857 5856 5855 5854 5852 5851 5850
5901 5900 5899 5899 5898 5898 5897 5897 5896 5895 5894 5894 5893 5892 5892 5891 5890 5888 5887 5885 5884 5882 5880 5879 5876 5874 5872 5870 5867 5865 5863 5862 5860 5858 5856 5855 5853 5852 5851 5849 5848 5847 5846
5899 5899 5898 5897 5897 5896 5896 5895 5895 5894 5893 5892 5891 5890 5889 5888 5887 5886 5884 5883 5881 5879 5877 5875 5873 5871 5869 5866 5864 5862 5860 5858 5856 5854 5852 5850 5849 5847 5846 5845 5843 5843 5842
5898 5897 5896 5895 5895 5894 5894 5893 5892 5891 5890 5889 5888 5888 5886 5885 5884 5882 5881 5879 5877 5876 5874 5872 5870 5867 5865 5863 5860 5858 5856 5854 5851 5849 5847 5846 5844 5843 5841 5840 5839 5838 5837
5896 5895 5894 5894 5893 5892 5891 5890 5889 5888 5887 5886 5885 5885 5883 5882 5880 5879 5877 5876 5874 5872 5870 5868 5866 5863 5861 5859 5856 5854 5852 5849 5847 5845 5843 5841 5839 5838 5836 5835 5834 5833 5832
5893 5893 5892 5891 5890 5889 5888 5887 5886 5885 5884 5883 5882 5881 5880 5878 5876 5875 5873 5872 5870 5868 5866 5864 5861 5859 5857 5855 5852 5849 5847 5844 5842 5840 5838 5836 5834 5833 5831 5830 5829 5828 5827
5890 5890 5889 5888 5887 5886 5885 5884 5883 5882 5880 5879 5878 5877 5875 5874 5872 5871 5869 5867 5865 5864 5862 5860 5857 5855 5852 5850 5847 5845 5842 5839 5837 5835 5833 5831 5829 5827 5826 5824 5823 5822 5821
5887 5886 5886 5885 5884 5883 5881 5880 5879 5877 5876 5874 5873 5872 5871 5869 5868 5866 5864 5862 5861 5859 5857 5855 5852 5850 5847 5844 5842 5839 5836 5833 5831 5829 5827 5825 5823 5821 5820 5818 5817 5816 5815
5884 5883 5882 5881 5880 5878 5877 5875 5874 5872 5871 5870 5868 5867 5866 5864 5862 5861 5859 5857 5855 5853 5851 5849 5846 5844 5841 5839 5836 5833 5830 5827 5825 5822 5821 5819 5817 5815 5814 5812 5810 5809 5808
5880 5879 5878 5877 5875 5874 5872 5871 5869 5868 5866 5865 5863 5862 5860 5859 5857 5855 5853 5851 5848 5846 5844 5842 5840 5838 5835 5832 5829 5827 5824 5821 5819 5816 5814 5812 5810 5808 5807 5805 5803 5802 5801
5875 5874 5873 5872 5870 5869 5867 5865 5864 5862 5861 5859 5858 5856 5854 5852 5850 5848 5846 5844 5841 5839 5837 5835 5832 5831 5828 5826 5823 5820 5817 5814 5812 5809 5807 5805 5803 5801 5799 5797 5796 5795 5793
5870 5869 5867 5866 5865 5863 5861 5860 5858 5857 5855 5853 5851 5849 5847 5845 5843 5841 5839 5836 5834 5831 5829 5827 5825 5823 5821 5818 5815 5812 5810 5807 5805 5803 5800 5798 5795 5794 5792 5790 5788 5787 5785
5864 5862 5861 5860 5859 5857 5856 5854 5852 5850 5848 5846 5844 5842 5840 5838 5835 5833 5831 5828 5826 5823 5821 5819 5817 5815 5812 5810 5807 5805 5802 5799 5797 5795 5792 5790 5787 5785 5783 5782 5780 5779 5777
5857 5856 5854 5853 5852 5850 5848 5846 5844 5842 5840 5839 5836 5834 5832 5830 5827 5825 5823 5820 5818 5816 5814 5811 5809 5807 5804 5801 5799 5796 5794 5791 5789 5786 5784 5781 5779 5777 5775 5773 5771 5770 5768
5850 5848 5847 5846 5844 5843 5841 5839 5837 5835 5833 5831 5828 5826 5824 5821 5819 5816 5814 5812 5810 5808 5805 5802 5800 5797 5795 5792 5790 5787 5785 5782 5780 5778 5775 5773 5771 5768 5766 5764 5762 5760 5759
5841 5840 5839 5838 5836 5835 5833 5831 5828 5826 5824 5822 5820 5817 5814 5812 5810 5807 5805 5803 5801 5799 5796 5793 5791 5788 5786 5783 5780 5778 5775 5772 5770 5768 5766 5763 5761 5759 5757 5755 5753 5751 5749